Погода в Янымове

Россия / Чувашская Республика     56°00′05″N   46°30′05″E
темп.,
°C
ветер,
м/с
пор.,
м/с
влажн.,
%
обл.,
%
осадки,
мм/ч
давл.,
гПа
погр.,
м
29 июля, чт
чт2900:00+15ю3359100 0.0 101336
03:00+14ююз357282 0.0 101279
06:00+17ююз3765100 0.0 1010157
09:00+18юз51074100 0.1 1010358
12:00+22ююз5663100 0.0 10091131
15:00+19ю5880100 0.4 1008470
18:00+19ююв457689 0.0 1006488
21:00+15ююв2295100 0.0 100525
30 июля, пт
пт3000:00+15з229612 0.0 100429
03:00+16з359715 0.0 1004126
06:00+17з379248 0.0 1005231
09:00+24з5763100 0.0 1005787
12:00+27з474996 0.0 10051939
15:00+26зюз3653100 0.1 1004540
18:00+25ю2361100 0.0 100471
21:00+18з2397100 3.2 100596
31 июля, сб
сб3100:00+17ю349751 0.3 100472
03:00+17ююз3698100 0.3 1003198
06:00+18юз359536 0.0 1003226
09:00+21зюз578474 0.0 1003686
12:00+27з794332 0.3 10042276
15:00+24зюз6954100 0.3 10041201
18:00+24зюз59533 0.0 1005658
21:00+18зюз48590 0.0 1006119
1 августа, вс
вс100:00+17юз486542 0.0 1007113
03:00+19юз395899 0.0 1008209
06:00+19зюз376479 0.0 1010234
09:00+24з59505 0.0 10101135
12:00+27з7941100 0.0 10102141
15:00+27зюз6839100 0.0 10102231
18:00+26зюз3647100 0.0 1010195
21:00+22ю355218 0.0 101079
2 августа, пн
пн200:00+20ю3116499 0.0 1009242
03:00+19ююз513676 0.0 1009280
06:00+21ююз4116399 0.0 1009318
09:00+26юз6849100 0.1 1009632
12:00+29юз4740100 0.0 10081249
15:00+32юз710377 0.0 10072493
18:00+25з486878 0.4 1008338
21:00+20ю61469100 0.6 1009340